SYRACUSE 4B

Last updated on Thu Jul 03 2025 00:02:49 GMT+0000 (Coordinated Universal Time)

1 57214U 23093B 25183.56523145 -.00000047 00000+0 00000+0 0 9996 2 57214 0.0027 113.1446 0000029 37.9514 326.6508 1.00270223 3459
UTC large
Height (km)
Speed (km/s)
/
Latitude / Longitude
Inclination (degrees)
Orbital Period (minutes)
Azimuth
Elevation
Range (km)
Doppler Factor

Next 0 passes for location: London (51.5072 / 0.1276)

Sorry there are no passes over London.